{"data":{"norad_id":47371,"epoch":"2026-09-19T22:15:31.730976Z","epoch_age_seconds":75244,"freshness":"FRESH","line1":"1 47371U 21005Y   26262.92745059  .00000637  00000+0  32306-4 0  9992","line2":"2 47371  53.1596 242.4007 0001366  92.6346 267.4812 15.31696762312730","mean_motion":15.31696762,"eccentricity":0.0001366,"inclination_deg":53.1596,"raan_deg":242.4007,"arg_perigee_deg":92.6346,"mean_anomaly_deg":267.4812,"bstar":3.2306e-5,"rev_number":31273,"period_min":94.013386704541,"perigee_km":469.8140896361,"apogee_km":471.68520546822,"semimajor_km":6848.8866475522,"source":"CELESTRAK","updated_at":"2026-09-20T09:00:38.591324Z"}}